Location: Chavenne
(46.6022°N, 3.2951°E)
Time: 03:56:46
(UTC+00:00)

STARLINK-1229 - Pass Details

Date: 09 April 2020
Orbit: 378 x 381 km, 53.0° (Epoch: 02 June)

Event Time Altitude Azimuth Distance (km) Brightness Sun altitude
Rises 19:53:16 0° 299° (WNW) 2,259 8.7 -14.6°
Reaches altitude 10° 19:55:20 10° 297° (WNW) 1,402 7.1 -14.9°
Maximum altitude 19:58:27 71° 213° (SSW) 405 2.9 -15.4°
Enters shadow 19:59:24 40° 140° (SE) 579 3.3 -15.5°
